Weather History for Rome, NY

Change the Weather History Date:

Friday, December 7, 2012

  Actual Average Record
Temperature  
Mean Temperature 34 °F -  
Max Temperature 39 °F 37 °F 47 °F (1982)
Min Temperature 30 °F 20 °F 6 °F (2008)
Degree Days  
Heating Degree Days 30    
Moisture  
Dew Point 28 °F    
Average Humidity 80    
Maximum Humidity 97    
Minimum Humidity 59    
Precipitation  
Precipitation 0.07 in - - ()
Sea Level Pressure  
Sea Level Pressure 30.07 in    
Wind  
Wind Speed 7 mph (ESE)    
Max Wind Speed 9 mph    
Max Gust Speed -    
Visibility 8 miles    
Events Rain    
Averages and records for this station are not official NWS values.
T = Trace of Precipitation, MM = Missing Value Source: NWS Daily Summary

Daily Weather History Graph

Daily Weather History Graph

Search for Another Location

Airport:

Trip Planner

Search our weather history database for the weather conditions in past years. The results will help you decide how hot, cold, wet, or windy it might be!

Date:

Astronomy

Dec. 07, 2012 Rise Set
Actual Time 7:20 AM EST 4:26 PM EST
Civil Twilight 6:48 AM EST 4:58 PM EST
Nautical Twilight 6:12 AM EST 5:34 PM EST
Astronomical Twilight 5:37 AM EST 6:08 PM EST
Moon 12:27 AM EST (12/7) 12:30 PM EST (12/7)
Length of Visible Light 10h 10m
Length of Day
9h 05m
Last Quarter, 39% of the Moon is Illuminated
Dec 7
Last Quarter
Dec 13
New
Dec 20
First Quarter
Dec 28
Full
Jan 4
Last Quarter

Hourly Weather History & Observations

Time (EST) Temp. Windchill Dew Point Humidity Pressure Visibility Wind Dir Wind Speed Gust Speed Precip Events Conditions
12:53 AM 30.9 °F 23.5 °F 18.0 °F 59% 30.16 in 10.0 mi ESE 8.1 mph - N/A   Clear
1:53 AM 30.9 °F 24.3 °F 18.0 °F 59% 30.15 in 10.0 mi ESE 6.9 mph - N/A   Clear
2:53 AM 30.9 °F 23.5 °F 18.0 °F 59% 30.15 in 10.0 mi ESE 8.1 mph - N/A   Clear
3:53 AM 30.9 °F 24.3 °F 18.0 °F 59% 30.13 in 10.0 mi ESE 6.9 mph - N/A   Clear
4:53 AM 30.9 °F 24.3 °F 19.0 °F 61% 30.12 in 10.0 mi East 6.9 mph - N/A   Clear
5:53 AM 30.9 °F 25.2 °F 19.9 °F 64% 30.13 in 10.0 mi SE 5.8 mph - N/A   Clear
6:53 AM 30.0 °F 23.2 °F 19.9 °F 66% 30.12 in 10.0 mi ESE 6.9 mph - N/A   Clear
7:53 AM 30.9 °F 22.8 °F 19.9 °F 64% 30.09 in 10.0 mi East 9.2 mph - N/A   Clear
8:53 AM 32.0 °F 25.6 °F 21.0 °F 64% 30.10 in 10.0 mi ESE 6.9 mph - N/A   Clear
9:53 AM 36.0 °F 29.6 °F 23.0 °F 59% 30.09 in 10.0 mi ESE 8.1 mph - N/A   Clear
10:53 AM 37.9 °F 31.5 °F 25.0 °F 60% 30.07 in 10.0 mi ESE 9.2 mph - N/A   Clear
11:53 AM 37.9 °F 31.5 °F 25.0 °F 60% 30.05 in 10.0 mi SE 9.2 mph - N/A   Overcast
12:53 PM 39.0 °F 34.0 °F 28.9 °F 67% 30.04 in 10.0 mi SE 6.9 mph - 0.00 in Rain Light Rain
1:53 PM 37.0 °F 31.6 °F 33.1 °F 86% 30.03 in 7.0 mi East 6.9 mph - 0.02 in Rain Light Rain
2:36 PM 37.0 °F 32.4 °F 34.0 °F 89% 30.03 in 4.0 mi ESE 5.8 mph - 0.02 in Rain Light Rain
2:53 PM 37.0 °F 31.6 °F 35.1 °F 93% 30.04 in 5.0 mi ESE 6.9 mph - 0.02 in Rain Light Rain
3:08 PM 37.0 °F 32.4 °F 35.1 °F 93% 30.03 in 8.0 mi ESE 5.8 mph - 0.00 in Rain Light Rain
3:19 PM 37.0 °F 33.3 °F 35.1 °F 93% 30.03 in 9.0 mi SE 4.6 mph - 0.00 in Rain Light Rain
3:53 PM 36.0 °F 30.3 °F 35.1 °F 97% 30.04 in 4.0 mi ESE 6.9 mph - 0.01 in Rain Light Rain
4:53 PM 36.0 °F 31.1 °F 34.0 °F 93% 30.04 in 6.0 mi ESE 5.8 mph - 0.01 in Rain Light Rain
5:31 PM 35.1 °F 30.1 °F 34.0 °F 96% 30.03 in 6.0 mi ESE 5.8 mph - 0.00 in Rain Light Rain
5:53 PM 35.1 °F 30.1 °F 34.0 °F 96% 30.05 in 5.0 mi ESE 5.8 mph - 0.01 in Rain Light Rain
6:06 PM 35.1 °F 31.0 °F 34.0 °F 96% 30.03 in 5.0 mi ESE 4.6 mph - 0.00 in Rain Light Rain
6:53 PM 35.1 °F 29.3 °F 33.1 °F 92% 30.04 in 7.0 mi ESE 6.9 mph - 0.00 in   Overcast
8:18 PM 34.0 °F 29.8 °F 33.1 °F 96% 30.03 in 6.0 mi SE 4.6 mph - N/A   Overcast
8:53 PM 34.0 °F 31.0 °F 33.1 °F 96% 30.05 in 6.0 mi SE 3.5 mph - N/A   Overcast
9:25 PM 33.1 °F - 32.0 °F 96% 30.04 in 6.0 mi Calm Calm - N/A   Overcast
9:53 PM 32.0 °F 27.5 °F 30.9 °F 96% 30.05 in 6.0 mi SE 4.6 mph - N/A   Partly Cloudy
10:53 PM 34.0 °F 28.0 °F 32.0 °F 92% 30.04 in 8.0 mi East 6.9 mph - N/A   Overcast
11:53 PM 33.1 °F 30.0 °F 32.0 °F 96% 30.03 in 5.0 mi ESE 3.5 mph - N/A   Overcast